Regional Weather Roundup
Issued by NWS Kansas City/Pleasant Hill, MO

Home | Current Version | Previous Version | Graphics & Text | Print | Product List | Glossary Off
Versions: 1 2 3 4 5 6 7 8 9 10 11 12 13 14 15 16 17 18 19 20 21 22 23 24 25 26 27 28 29 30 31 32 33 34 35 36 37 38 39 40 41 42 43 44 45 46 47 48 49 50

000
ASUS43 KEAX 282211
RWREAX

WEATHER ROUNDUP FOR EASTERN KANSAS AND NORTHWEST MISSOURI
NATIONAL WEATHER SERVICE KANSAS CITY/PLEASANT HILL MO
500 PM CDT SAT MAR 28 2015

KSZ040-057-103>105-MOZ028-029-037-043-282300-
...KANSAS CITY METROPOLITAN AREA...

CITY           SKY/WX    TMP DP  RH WIND       PRES   REMARKS
K.C. INTL      MOSUNNY   52  31  44 E12       30.11F
K.C. DOWNTOWN  SUNNY     54  30  40 E9        30.11F
LEES SUMMIT    SUNNY     52  30  43 SE12      30.13S
OLATHE - IXD   SUNNY     52  32  46 SE13      30.12S
OLATHE - OJC   SUNNY     52  31  44 SE10      30.11S
LAWRENCE       SUNNY     54  31  41 SE13      30.11S

$$

MOZ001>008-011>017-020>025-030>033-038>040-044>046-053-054-282300-
...NORTHERN AND CENTRAL MISSOURI...

CITY           SKY/WX    TMP DP  RH WIND       PRES   REMARKS
ST. JOSEPH     MOSUNNY   54  32  43 S14G21    30.12F
MOSBY          CLEAR     52  32  46 E10       30.13F
WARRENSBURG    SUNNY     52  32  46 SE8       30.15S
WHITEMAN AFB   SUNNY     51  31  46 SE10      30.14F
CLINTON        SUNNY     52  32  46 SE12G20   30.16S
SEDALIA        MOSUNNY   51  30  44 SE14      30.16F
WARSAW         NOT AVBL
MARSHALL       SUNNY     52  34  50 E12       30.18S
CHILLICOTHE      N/A     50  31  48 S7        30.17F
MOBERLY        SUNNY     50  25  37 SE8       30.20
KIRKSVILLE     SUNNY     46  24  42 S12       30.20F

$$

MOZ041-047>049-056>058-063>065-088>090-097-282300-
...EASTERN AND SOUTHERN MISSOURI...

CITY           SKY/WX    TMP DP  RH WIND       PRES   REMARKS
ST. LOUIS INTL SUNNY     46  16  30 E7        30.26F
SPIRIT OF STL  MOSUNNY   46  18  32 SE6       30.24F
COLUMBIA       MOSUNNY   47  27  45 SE8       30.19F
JEFFERSON CITY MOSUNNY   47  27  45 SE8       30.20F
MEXICO         SUNNY     50  28  43 SE8       30.21
HANNIBAL       SUNNY     48  10  21 E5        30.23F
ROLLA          MOSUNNY   45  27  49 SE5       30.18S
OSAGE BEACH    CLOUDY    48  30  49 SE6       30.19S
SPRINGFIELD    MOSUNNY   47  32  56 SE14      30.14F
BRANSON        MOSUNNY   45  32  61 E14       30.16S
NEVADA         SUNNY     54  34  47 E12       30.13S
JOPLIN         SUNNY     58  38  47 SE10G18   30.07S
WEST PLAINS    CLOUDY    37  31  78 SE7       30.23S WCI  32

$$

IAZ060-094-KSZ022-034>040-054-083-096-NEZ052-066-093-282300-
...KANSAS...SOUTHEAST NEBRASKA AND IOWA...

CITY           SKY/WX    TMP DP  RH WIND       PRES   REMARKS
TOPEKA         SUNNY     56  33  42 SE9G20    30.09S
MANHATTAN      SUNNY     63  35  35 SE13G18   30.02F
EMPORIA        SUNNY     61  36  39 E12       30.04S
CHANUTE        SUNNY     62  41  46 SE10G18   30.06S
WICHITA        SUNNY     73  38  27 E12       29.97F
OMAHA          SUNNY     54  29  38 S15G23    30.06F
LINCOLN        SUNNY     57  33  40 SE14G23   30.05F
FALLS CITY     SUNNY     54  32  43 SE15G21   30.08F
LAMONI         SUNNY     48  25  40 SE12G18   30.13F
DES MOINES     MOSUNNY   50  16  25 S13       30.14F

$$



USA.gov is the U.S. government's official web portal to all federal, state and local government web resources and services.